| time (UTC) | temp F | wind direction | speed MPH | gust MPH | rain 1hr in | rain 24hr in | rain mn in | humidity % | barometer mb |
| 20260903213133 | 64 | 194 | 4.0 | 10.0 | 0.00 | 0.09 | 0.01 | 66 | 1007.5 |
| 20260903212110 | 65 | 196 | 4.0 | 9.0 | 0.00 | 0.09 | 0.01 | 64 | 1007.5 |
| 20260903211058 | 66 | 158 | 4.0 | 14.0 | 0.00 | 0.09 | 0.01 | 64 | 1007.5 |
| 20260903210053 | 64 | 156 | 4.0 | 14.0 | 0.00 | 0.09 | 0.01 | 67 | 1007.4 |
| 20260903205058 | 64 | 171 | 4.0 | 14.0 | 0.00 | 0.09 | 0.01 | 67 | 1007.4 |
| 20260903204028 | 64 | 197 | 4.0 | 12.0 | 0.00 | 0.09 | 0.01 | 67 | 1007.3 |
| 20260903202955 | 64 | 166 | 3.0 | 10.0 | 0.00 | 0.09 | 0.01 | 69 | 1007.3 |
| 20260903200838 | 63 | 165 | 5.0 | 11.0 | 0.00 | 0.09 | 0.01 | 69 | 1007.3 |
| 20260903195833 | 63 | 194 | 4.0 | 11.0 | 0.00 | 0.09 | 0.01 | 69 | 1007.3 |
| 20260903194837 | 64 | 163 | 3.0 | 10.0 | 0.00 | 0.09 | 0.01 | 68 | 1007.2 |
| 20260903193829 | 64 | 165 | 2.0 | 12.0 | 0.00 | 0.09 | 0.01 | 66 | 1007.1 |
| 20260903192854 | 66 | 196 | 4.0 | 12.0 | 0.00 | 0.09 | 0.01 | 65 | 1007.0 |
| 20260903191843 | 65 | 171 | 2.0 | 12.0 | 0.00 | 0.09 | 0.01 | 67 | 1007.1 |
| 20260903185711 | 63 | 194 | 6.0 | 13.0 | 0.00 | 0.09 | 0.01 | 71 | 1007.0 |
| 20260903184700 | 63 | 40 | 7.0 | 14.0 | 0.00 | 0.09 | 0.01 | 70 | 1007.0 |
| 20260903183708 | 62 | 190 | 5.0 | 14.0 | 0.00 | 0.09 | 0.01 | 71 | 1007.0 |
| 20260903182651 | 62 | 144 | 5.0 | 15.0 | 0.00 | 0.09 | 0.01 | 73 | 1006.9 |
| 20260903181630 | 62 | 172 | 5.0 | 15.0 | 0.00 | 0.09 | 0.01 | 73 | 1006.9 |
| 20260903174357 | 62 | 178 | 5.0 | 12.0 | 0.00 | 0.09 | 0.01 | 74 | 1006.5 |
| 20260903172255 | 61 | 208 | 5.0 | 14.0 | 0.00 | 0.09 | 0.01 | 77 | 1006.3 |
| 20260903171312 | 61 | 180 | 3.0 | 13.0 | 0.00 | 0.09 | 0.01 | 78 | 1006.2 |
| 20260903165133 | 59 | 131 | 2.0 | 8.0 | 0.00 | 0.09 | 0.01 | 81 | 1006.1 |
| 20260903164148 | 59 | 173 | 2.0 | 5.0 | 0.00 | 0.09 | 0.01 | 82 | 1006.1 |
| 20260903163211 | 58 | 247 | 1.0 | 9.0 | 0.00 | 0.09 | 0.01 | 83 | 1006.1 |
| 20260903161115 | 58 | 203 | 3.0 | 12.0 | 0.00 | 0.09 | 0.01 | 84 | 1006.0 |
| 20260903160041 | 58 | 194 | 4.0 | 10.0 | 0.00 | 0.09 | 0.01 | 85 | 1005.9 |
| 20260903155029 | 58 | 146 | 3.0 | 10.0 | 0.00 | 0.09 | 0.01 | 84 | 1005.9 |
| 20260903153957 | 58 | 197 | 2.0 | 10.0 | 0.00 | 0.09 | 0.01 | 84 | 1006.0 |
| 20260903151819 | 57 | 183 | 2.0 | 11.0 | 0.00 | 0.09 | 0.01 | 85 | 1005.8 |
| 20260903150801 | 57 | 170 | 3.0 | 9.0 | 0.00 | 0.09 | 0.01 | 86 | 1005.8 |
| 20260903145755 | 57 | 215 | 4.0 | 9.0 | 0.00 | 0.09 | 0.01 | 86 | 1005.7 |
| 20260903144818 | 56 | 209 | 4.0 | 13.0 | 0.00 | 0.09 | 0.01 | 87 | 1005.6 |
| 20260903143841 | 56 | 78 | 4.0 | 13.0 | 0.00 | 0.09 | 0.01 | 87 | 1005.6 |
| 20260903142823 | 56 | 217 | 3.0 | 13.0 | 0.00 | 0.09 | 0.01 | 88 | 1005.5 |
| 20260903141814 | 56 | 204 | 1.0 | 10.0 | 0.00 | 0.09 | 0.01 | 89 | 1005.5 |
| 20260903140811 | 56 | 140 | 3.0 | 10.0 | 0.00 | 0.09 | 0.01 | 89 | 1005.3 |
| 20260903135815 | 56 | 239 | 3.0 | 9.0 | 0.00 | 0.09 | 0.01 | 89 | 1005.3 |
| 20260903134818 | 56 | 144 | 3.0 | 11.0 | 0.00 | 0.09 | 0.01 | 89 | 1005.2 |
| 20260903133809 | 56 | 162 | 4.0 | 11.0 | 0.00 | 0.09 | 0.01 | 90 | 1005.1 |
| 20260903132749 | 55 | 150 | 4.0 | 14.0 | 0.00 | 0.09 | 0.01 | 90 | 1005.0 |
| 20260903131752 | 55 | 187 | 4.0 | 14.0 | 0.00 | 0.09 | 0.01 | 90 | 1004.9 |
| 20260903130807 | 55 | 199 | 3.0 | 10.0 | 0.00 | 0.09 | 0.01 | 90 | 1004.7 |
| 20260903125745 | 55 | 219 | 3.0 | 12.0 | 0.00 | 0.09 | 0.01 | 89 | 1004.7 |
| 20260903124747 | 56 | 195 | 5.0 | 17.0 | 0.00 | 0.09 | 0.01 | 87 | 1004.6 |
| 20260903122658 | 57 | 175 | 5.0 | 16.0 | 0.00 | 0.08 | 0.00 | 83 | 1004.5 |
| 20260903121645 | 57 | 200 | 4.0 | 16.0 | 0.00 | 0.08 | 0.00 | 83 | 1004.5 |
| 20260903120710 | 57 | 103 | 5.0 | 16.0 | 0.00 | 0.08 | 0.00 | 82 | 1004.3 |
| 20260903115733 | 57 | 206 | 5.0 | 14.0 | 0.00 | 0.08 | 0.00 | 82 | 1004.2 |
| 20260903113555 | 58 | 192 | 5.0 | 16.0 | 0.00 | 0.08 | 0.00 | 82 | 1004.1 |
| 20260903105133 | 58 | 200 | 5.0 | 16.0 | 0.00 | 0.08 | 0.00 | 82 | 1003.8 |
| 20260903104150 | 58 | 184 | 4.0 | 18.0 | 0.00 | 0.08 | 0.00 | 82 | 1003.7 |
| 20260903103214 | 57 | 131 | 4.0 | 18.0 | 0.00 | 0.08 | 0.00 | 82 | 1003.7 |
| 20260903101044 | 58 | 172 | 6.0 | 14.0 | 0.00 | 0.08 | 0.00 | 82 | 1003.6 |
| 20260903100010 | 58 | 175 | 3.0 | 11.0 | 0.00 | 0.08 | 0.00 | 82 | 1003.6 |
| 20260903094940 | 57 | 267 | 3.0 | 18.0 | 0.00 | 0.08 | 0.00 | 82 | 1003.6 |
| 20260903094004 | 58 | 170 | 4.0 | 18.0 | 0.00 | 0.08 | 0.00 | 82 | 1003.5 |
| 20260903093002 | 58 | 225 | 4.0 | 15.0 | 0.00 | 0.08 | 0.00 | 82 | 1003.6 |
| 20260903092005 | 58 | 221 | 3.0 | 15.0 | 0.00 | 0.08 | 0.00 | 83 | 1003.6 |
| 20260903090949 | 58 | 261 | 2.0 | 10.0 | 0.00 | 0.08 | 0.00 | 83 | 1003.5 |
| 20260903085931 | 58 | 47 | 3.0 | 10.0 | 0.00 | 0.08 | 0.00 | 84 | 1003.5 |
| 20260903084947 | 58 | 329 | 2.0 | 8.0 | 0.00 | 0.08 | 0.00 | 84 | 1003.5 |
| 20260903083932 | 58 | 230 | 3.0 | 13.0 | 0.00 | 0.08 | 0.00 | 84 | 1003.5 |
| 20260903082914 | 58 | 205 | 2.0 | 16.0 | 0.00 | 0.08 | 0.00 | 84 | 1003.6 |
| 20260903080821 | 58 | 88 | 2.0 | 10.0 | 0.00 | 0.08 | 0.00 | 83 | 1003.5 |
| 20260903075751 | 58 | 41 | 1.0 | 10.0 | 0.00 | 0.08 | 0.00 | 83 | 1003.5 |
| 20260903074731 | 58 | 179 | 2.0 | 12.0 | 0.00 | 0.08 | 0.00 | 83 | 1003.5 |
| 20260903073709 | 58 | 281 | 2.0 | 12.0 | 0.00 | 0.08 | 0.00 | 83 | 1003.5 |
| 20260903072709 | 58 | 155 | 2.0 | 9.0 | 0.00 | 0.08 | 0.00 | 83 | 1003.5 |
| 20260903071715 | 58 | 173 | 2.0 | 11.0 | 0.00 | 0.08 | 0.00 | 84 | 1003.5 |
| 20260903070735 | 58 | 157 | 3.0 | 11.0 | 0.00 | 0.08 | 0.00 | 84 | 1003.5 |
| 20260903065725 | 58 | 221 | 2.0 | 9.0 | 0.00 | 0.08 | 0.08 | 85 | 1003.4 |
| 20260903064732 | 58 | 188 | 1.0 | 7.0 | 0.00 | 0.08 | 0.08 | 85 | 1003.4 |
| 20260903063745 | 57 | 201 | 1.0 | 13.0 | 0.00 | 0.08 | 0.08 | 86 | 1003.3 |
| 20260903062715 | 57 | 84 | 2.0 | 13.0 | 0.00 | 0.08 | 0.08 | 86 | 1003.2 |
| 20260903061643 | 57 | 130 | 2.0 | 11.0 | 0.00 | 0.08 | 0.08 | 88 | 1003.2 |
| 20260903060648 | 57 | 192 | 4.0 | 11.0 | 0.00 | 0.08 | 0.08 | 88 | 1003.1 |
| 20260903055627 | 57 | 151 | 3.0 | 11.0 | 0.00 | 0.08 | 0.08 | 88 | 1003.2 |
| 20260903054603 | 57 | 174 | 3.0 | 11.0 | 0.00 | 0.08 | 0.08 | 88 | 1003.3 |
| 20260903052456 | 57 | 279 | 3.0 | 16.0 | 0.00 | 0.08 | 0.08 | 88 | 1003.3 |
| 20260903051507 | 57 | 165 | 4.0 | 16.0 | 0.00 | 0.08 | 0.08 | 88 | 1003.3 |
| 20260903050433 | 57 | 148 | 4.0 | 14.0 | 0.00 | 0.08 | 0.08 | 89 | 1003.0 |
| 20260903045405 | 57 | 188 | 5.0 | 14.0 | 0.00 | 0.08 | 0.08 | 89 | 1003.1 |
| 20260903044347 | 57 | 148 | 2.0 | 12.0 | 0.00 | 0.08 | 0.08 | 89 | 1002.9 |
| 20260903043333 | 57 | 204 | 3.0 | 12.0 | 0.00 | 0.08 | 0.08 | 88 | 1002.9 |
| 20260903040021 | 57 | 140 | 1.0 | 6.0 | 0.00 | 0.08 | 0.08 | 86 | 1002.5 |
| 20260903035037 | 57 | 115 | 2.0 | 7.0 | 0.00 | 0.08 | 0.08 | 86 | 1002.3 |
| 20260903034054 | 57 | 66 | 2.0 | 7.0 | 0.00 | 0.08 | 0.08 | 86 | 1001.8 |
| 20260903033119 | 58 | 122 | 2.0 | 13.0 | 0.00 | 0.08 | 0.08 | 85 | 1001.7 |
| 20260903032130 | 58 | 173 | 3.0 | 13.0 | 0.00 | 0.08 | 0.08 | 84 | 1001.6 |
| 20260903031153 | 59 | 181 | 5.0 | 18.0 | 0.00 | 0.08 | 0.08 | 83 | 1001.5 |
| 20260903030137 | 59 | 163 | 8.0 | 18.0 | 0.00 | 0.08 | 0.08 | 83 | 1001.3 |
| 20260903025108 | 59 | 140 | 7.0 | 17.0 | 0.00 | 0.08 | 0.08 | 83 | 1001.0 |
| 20260903024109 | 59 | 128 | 7.0 | 16.0 | 0.00 | 0.08 | 0.08 | 83 | 1000.6 |
| 20260903023114 | 60 | 141 | 7.0 | 16.0 | 0.00 | 0.08 | 0.08 | 83 | 1000.2 |
| 20260903022044 | 60 | 172 | 7.0 | 18.0 | 0.00 | 0.08 | 0.08 | 83 | 1000.0 |
| 20260903021031 | 60 | 225 | 7.0 | 18.0 | 0.00 | 0.08 | 0.08 | 83 | 999.9 |
| 20260903020054 | 60 | 169 | 7.0 | 21.0 | 0.00 | 0.08 | 0.08 | 83 | 999.7 |
| 20260903015026 | 60 | 11 | 7.0 | 21.0 | 0.00 | 0.08 | 0.08 | 82 | 999.6 |
| 20260903011832 | 59 | 209 | 7.0 | 24.0 | 0.00 | 0.08 | 0.08 | 84 | 998.9 |
| 20260903005711 | 59 | 146 | 6.0 | 23.0 | 0.00 | 0.08 | 0.08 | 87 | 998.8 |
| 20260903004700 | 58 | 240 | 5.0 | 18.0 | 0.00 | 0.08 | 0.08 | 90 | 999.0 |
| 20260903003651 | 57 | 156 | 4.0 | 17.0 | 0.00 | 0.08 | 0.08 | 90 | 999.2 |
| 20260903001543 | 57 | 160 | 6.0 | 21.0 | 0.06 | 0.06 | 0.06 | 91 | 999.7 |
| 20260903000522 | 57 | 227 | 5.0 | 15.0 | 0.10 | 0.06 | 0.06 | 91 | 999.8 |
| 20260902235517 | 57 | 169 | 6.0 | 19.0 | 0.06 | 0.04 | 0.04 | 89 | 999.9 |
| 20260902234445 | 58 | 186 | 5.0 | 19.0 | 0.17 | 0.03 | 0.03 | 88 | 999.9 |
| 20260902232314 | 60 | 185 | 4.0 | 18.0 | 0.00 | 0.00 | 0.00 | 81 | 999.9 |
| 20260902231251 | 61 | 200 | 7.0 | 19.0 | 0.00 | 0.00 | 0.00 | 77 | 999.9 |
| 20260902230309 | 62 | 194 | 7.0 | 19.0 | 0.00 | 0.00 | 0.00 | 76 | 999.9 |
| 20260902225240 | 62 | 136 | 8.0 | 17.0 | 0.00 | 0.00 | 0.00 | 76 | 1000.0 |
| 20260902224248 | 63 | 235 | 5.0 | 16.0 | 0.00 | 0.00 | 0.00 | 76 | 1000.0 |
| 20260902221027 | 64 | 206 | 7.0 | 19.0 | 0.00 | 0.00 | 0.00 | 73 | 999.9 |
| 20260902220030 | 64 | 231 | 8.0 | 19.0 | 0.00 | 0.00 | 0.00 | 72 | 1000.0 |
| 20260902213845 | 63 | 200 | 6.0 | 17.0 | 0.00 | 0.00 | 0.00 | 74 | 1000.2 |